カタログに戻る

STARLINK-32294

運用中通信VLEO
NORAD 61675·PAYLOAD·🇺🇸 United States

打ち上げ Oct 26, 2024 から Cape Canaveral Space Force Station

Loading…

次のパス (今後24時間)

TLE

最新Source: CelesTrak SupGP

元期: Sep 14, 2026, 22:49 UTC

1 61675C 24193Q   26257.95118056  .00050502  00000+0  16243-2 0  2577
2 61675  53.1588 290.4204 0001239  89.1116 297.0068 15.31670594    13

AllMySatでSTARLINK-32294をリアルタイム追跡

Download on the App Store